User: anonymous   Login
Location: Hains Lake
(37.8540°N, 99.8578°W)
Time: 21:16:04
(UTC+00:00)
Language:

ISS - Orbit

View from above orbital plane
View from above orbital plane
View from above satellite
View from above satellite

Ground track
Ground track

The orbit data is extracted from the following two-line orbital elements,

1 25544U 98067A   21106.35483517  .00000869  00000-0  24019-4 0  9999
2 25544  51.6440 288.5562 0002888 230.8792 196.1667 15.48889404279011
Epoch (UTC): 16 April 2021 08:30:57
Eccentricity: 0.0002888
inclination: 51.6440°
perigee height: 418 km
apogee height: 422 km
right ascension of ascending node: 288.5562°
argument of perigee: 230.8792°
revolutions per day: 15.48889404
mean anomaly at epoch: 196.1667°
orbit number at epoch: 27901

The dashed part of the orbit path shows where the satellite is in the earth's shadow,  

DLR